Location: Newark
(48.2308°N, 120.8549°W)
Time: 00:43:07
(UTC+00:00)

Transit 2A Rocket - Pass Details

Date: 02 June 2020
Orbit: 584 x 919 km, 66.7° (Epoch: 13 July)

Event Time Altitude Azimuth Distance (km) Brightness Sun altitude
Rises 16:07:42 0° 312° (NW) 3,535 8.0 37.3°
Reaches altitude 10° 16:11:14 10° 291° (WNW) 2,612 7.4 37.8°
Maximum altitude 16:14:40 16° 257° (WSW) 2,229 7.1 38.4°
Drops below altitude 10° 16:18:06 10° 222° (SW) 2,602 7.6 39.0°
Sets 16:21:38 0° 202° (SSW) 3,515 8.3 39.5°
